Weather History for Fort Myers, FL

Change the Weather History Date:

Saturday, March 16, 2013

  Actual Average Record
Temperature  
Mean Temperature 63 °F 70 °F  
Max Temperature 76 °F 80 °F 90 °F (1990)
Min Temperature 50 °F 59 °F 43 °F (1932)
Degree Days  
Heating Degree Days 2 1  
Month to date heating degree days 61 16  
Since 1 July heating degree days 177 276  
Cooling Degree Days 0 6  
Month to date cooling degree days 13 82  
Year to date cooling degree days 324 267  
Growing Degree Days 12 (Base 50)    
Moisture  
Dew Point 46 °F    
Average Humidity 59    
Maximum Humidity 89    
Minimum Humidity 29    
Precipitation  
Precipitation 0.00 in 0.10 in 0.52 in (1959)
Month to date precipitation 0.12 1.50  
Year to date precipitation 2.60 5.59  
Sea Level Pressure  
Sea Level Pressure 30.16 in    
Wind  
Wind Speed 5 mph (South)    
Max Wind Speed 15 mph    
Max Gust Speed 20 mph    
Visibility 10 miles    
Events      
T = Trace of Precipitation, MM = Missing Value Source: NWS Daily Summary

Daily Weather History Graph

Daily Weather History Graph

Search for Another Location

Airport:

Trip Planner

Search our weather history database for the weather conditions in past years. The results will help you decide how hot, cold, wet, or windy it might be!

Date:

Astronomy

Mar. 16, 2013 Rise Set
Actual Time 7:35 AM EDT 7:36 PM EDT
Civil Twilight 7:12 AM EDT 7:59 PM EDT
Nautical Twilight 6:45 AM EDT 8:26 PM EDT
Astronomical Twilight 6:18 AM EDT 8:53 PM EDT
Moon 10:32 AM EDT (3/16) No Moon Set
Length of Visible Light 12h 47m
Length of Day
12h 01m
Waxing Crescent, 23% of the Moon is Illuminated
Mar 16
Waxing Crescent
Mar 19
First Quarter
Mar 27
Full
Apr 3
Last Quarter
Apr 10
New

Hourly Weather History & Observations

Time (EDT) Temp. Dew Point Humidity Pressure Visibility Wind Dir Wind Speed Gust Speed Precip Events Conditions
12:53 AM 54.0 °F 43.0 °F 66% 30.21 in 10.0 mi NE 6.9 mph - N/A   Clear
1:53 AM 53.1 °F 43.0 °F 69% 30.20 in 10.0 mi ENE 4.6 mph - N/A   Clear
2:53 AM 53.1 °F 43.0 °F 69% 30.18 in 10.0 mi Calm Calm - N/A   Clear
3:53 AM 52.0 °F 45.0 °F 77% 30.17 in 10.0 mi Calm Calm - N/A   Clear
4:53 AM 51.1 °F 45.0 °F 80% 30.16 in 10.0 mi Calm Calm - N/A   Clear
5:53 AM 50.0 °F 46.0 °F 86% 30.16 in 10.0 mi Calm Calm - N/A   Clear
6:53 AM 51.1 °F 48.0 °F 89% 30.17 in 10.0 mi SE 3.5 mph - N/A   Clear
7:53 AM 51.1 °F 48.0 °F 89% 30.19 in 7.0 mi Calm Calm - N/A   Clear
8:53 AM 55.0 °F 50.0 °F 83% 30.20 in 9.0 mi SE 3.5 mph - N/A   Clear
9:53 AM 64.0 °F 51.1 °F 63% 30.20 in 10.0 mi SSE 6.9 mph - N/A   Clear
10:53 AM 70.0 °F 48.0 °F 46% 30.20 in 10.0 mi SSE 9.2 mph - N/A   Clear
11:53 AM 71.1 °F 43.0 °F 36% 30.20 in 10.0 mi ESE 5.8 mph - N/A   Clear
12:53 PM 73.9 °F 42.1 °F 32% 30.17 in 10.0 mi ESE 8.1 mph - N/A   Clear
1:53 PM 75.0 °F 46.0 °F 36% 30.15 in 10.0 mi West 8.1 mph - N/A   Clear
2:53 PM 75.0 °F 46.9 °F 37% 30.13 in 10.0 mi WSW 9.2 mph 19.6 mph N/A   Clear
3:53 PM 75.0 °F 46.9 °F 37% 30.11 in 10.0 mi West 11.5 mph - N/A   Clear
4:53 PM 73.9 °F 39.0 °F 28% 30.10 in 10.0 mi SW 13.8 mph 19.6 mph N/A   Clear
5:53 PM 72.0 °F 41.0 °F 33% 30.10 in 10.0 mi SW 10.4 mph - N/A   Clear
6:53 PM 70.0 °F 41.0 °F 35% 30.10 in 10.0 mi WSW 9.2 mph - N/A   Clear
7:53 PM 66.0 °F 46.9 °F 50% 30.11 in 10.0 mi WSW 5.8 mph - N/A   Clear
8:53 PM 64.9 °F 48.9 °F 56% 30.12 in 10.0 mi Calm Calm - N/A   Clear
9:53 PM 61.0 °F 48.9 °F 64% 30.13 in 10.0 mi Calm Calm - N/A   Clear
10:53 PM 59.0 °F 48.9 °F 69% 30.15 in 10.0 mi Calm Calm - N/A   Clear
11:53 PM 57.9 °F 51.1 °F 78% 30.15 in 10.0 mi Calm Calm - N/A   Clear